[[{"header":{"parameterUnit":"m.s-1","parameterCategory":1,"la1":30.2991,"la2":30.254,"lo1":-89.0895,"lo2":-89.0444,"dy":0.0017,"dx":0.0017,"nx":28,"ny":28,"refTime":"2026-02-24T09:00:00:Z","depth":0,"parameterNumber":2,"parameterNumberName":"U-component_of_WINDS"},"data":[0,0,0,0,0,0,0,0,0,0,0,0,0,0,0,0,0,0,0,0,0,0,0,0,0,0,0,0,0,0,0,0,0,0,0,0,0,0,0,0,0,0,0,0,0,0,0,0,0,0,0,0,0,0,0,0,0,0,1.1884,1.1885,0,1.1931,1.1932,1.1932,1.193,1.1929,1.1929,1.1928,1.1979,1.1981,1.1983,0,0,0,0,0,0,0,0,0,0,0,0,0,1.1795,1.1797,1.1884,1.1885,1.1886,1.1931,1.1932,1.1933,1.193,1.1929,1.1929,1.1928,1.1978,1.198,1.1983,0,0,0,0,0,0,0,0,0,0,0,0,0,1.1837,1.1797,1.1884,1.189,1.1891,1.1931,1.1932,1.1933,1.193,1.1929,1.1928,1.1927,1.1977,1.198,1.1983,1.2022,0,0,1.1992,1.1993,0,0,0,0,0,0,0,0,1.1835,1.1841,1.1888,1.189,1.1891,1.1924,1.1919,1.1963,1.1931,1.1916,1.1928,1.1927,1.1961,1.1966,1.1977,1.2024,1.2026,1.1992,1.1994,1.1995,1.1996,0,0,0,0,0,0,0,1.1832,1.1839,1.1903,1.1889,1.1891,1.1891,1.1896,1.1927,1.1944,1.1917,1.1917,1.1922,1.1962,1.1974,1.1978,1.2027,1.1992,1.1995,1.1997,1.1998,1.2109,1.211,0,0,0,0,0,0,1.1828,1.1836,1.1902,1.1904,1.186,1.1893,1.1899,1.1914,1.1943,1.1947,1.1923,1.1922,1.1969,1.1974,1.198,1.2027,1.1995,1.1998,1.2,1.2108,1.2109,1.211,0,0,0,0,0,0,1.1826,1.1833,1.19,1.187,1.1879,1.1896,1.1913,1.1916,1.1928,1.1948,1.1951,1.1932,1.1969,1.1975,1.2011,1.2029,1.1999,1.2002,1.2106,1.2108,1.211,1.2122,0,0,0,0,0,0,1.1823,1.1833,1.1847,1.1871,1.188,1.193,1.1914,1.1917,1.1933,1.1932,1.1957,1.1961,1.1968,1.2007,1.2014,1.2032,1.2004,1.2105,1.2107,1.2109,1.212,1.2124,1.2127,0,0,0,0,0,1.182,1.1849,1.1848,1.1856,1.1898,1.1931,1.1936,1.1944,1.1934,1.1949,1.1962,1.196,1.2026,1.201,1.2019,1.2038,1.2104,1.2106,1.2109,1.2118,1.2123,1.2127,0,0,0,0,0,0,1.1827,1.1852,1.1851,1.1888,1.1907,1.193,1.1949,1.1949,1.1971,1.197,1.1979,1.1985,1.2021,1.2033,1.2016,1.2077,1.2063,1.2068,1.2068,1.2072,1.2076,1.2072,1.2007,0,0,0,0,0,1.1833,1.1857,1.1877,1.1908,1.1918,1.1932,1.1946,1.195,1.1971,1.1979,1.1995,1.2015,1.2041,1.2057,1.2082,1.2122,1.2128,1.2139,1.2143,1.2145,1.2149,1.2172,1.2177,1.2119,1.2119,1.2119,0,0,1.1846,1.1862,1.1877,1.191,1.1925,1.195,1.1939,1.1965,1.1984,1.1983,1.2018,1.203,1.2054,1.2092,1.2109,1.2103,1.2167,1.2149,1.2151,1.2153,1.2175,1.2181,1.2186,1.2121,1.212,1.212,0,0,1.1881,1.1896,1.1923,1.1939,1.1962,1.1971,1.1978,1.2001,1.2009,1.2043,1.2043,1.2066,1.211,1.2127,1.2141,1.2183,1.2183,1.2191,1.221,1.2232,1.2237,1.2241,1.2256,1.2262,1.2195,1.2195,1.2195,0,1.1894,1.1931,1.1938,1.1965,1.198,1.198,1.2008,1.2023,1.2053,1.2064,1.2056,1.2111,1.2127,1.2169,1.218,1.2191,1.22,1.2188,1.2235,1.2239,1.2243,1.2258,1.2264,1.2196,1.2196,1.2196,1.2196,0,1.1946,1.1971,1.1991,1.2019,1.2037,1.2064,1.2076,1.2093,1.2096,1.2106,1.2142,1.2161,1.2189,1.22,1.2203,1.2243,1.2238,1.2233,1.2219,1.225,1.2264,1.227,1.2197,1.2197,1.2197,1.2196,0,0,1.1987,1.2019,1.2026,1.2039,1.2065,1.2085,1.2113,1.214,1.2155,1.2176,1.22,1.2237,1.2232,1.2248,1.2254,1.2273,1.2306,1.2265,1.2266,1.2272,1.2352,1.2356,1.2362,1.2306,1.2307,1.2308,1.235,0,1.2025,1.2074,1.2081,1.2124,1.2148,1.2149,1.2174,1.2192,1.2203,1.2226,1.2238,1.2264,1.2255,1.2265,1.2284,1.2298,1.2322,1.2295,1.2329,1.233,1.2323,1.2369,1.2374,1.2412,1.2355,1.2356,1.2357,0,1.2076,1.2098,1.2143,1.2166,1.2177,1.2198,1.2224,1.2245,1.2267,1.2274,1.2292,1.2295,1.2325,1.231,1.2352,1.2334,1.2348,1.2357,1.2359,1.2362,1.2345,1.2375,1.2425,1.2431,1.2366,1.2365,1.2364,0,1.2102,1.2143,1.2175,1.2187,1.2214,1.2229,1.2242,1.2262,1.2278,1.2301,1.2312,1.2338,1.2353,1.2373,1.2384,1.2372,1.2426,1.2411,1.2432,1.2432,1.2444,1.2443,1.2497,1.2453,1.2453,1.2452,1.2452,0,1.2144,1.2172,1.2187,1.2207,1.2239,1.2247,1.2279,1.2291,1.2309,1.2332,1.2335,1.2357,1.2369,1.2393,1.2402,1.2436,1.2442,1.2449,1.2451,1.2449,1.2448,1.2458,1.2456,1.2454,1.2454,1.2453,1.2453,0,1.2178,1.2189,1.2225,1.2248,1.2254,1.2277,1.2297,1.2317,1.2327,1.2356,1.2364,1.2381,1.2409,1.2422,1.2457,1.2463,1.2501,1.2501,1.2494,1.2494,1.2515,1.2513,1.2578,1.2587,1.2536,1.2537,1.2537,0,1.2204,1.2225,1.225,1.2266,1.2278,1.2303,1.2319,1.2329,1.2346,1.2373,1.239,1.2418,1.2441,1.2486,1.2502,1.253,1.253,1.2551,1.2535,1.2532,1.2531,1.253,1.2532,1.2555,1.2555,1.2555,1.2556,0,1.2249,1.2253,1.2276,1.2302,1.2321,1.2341,1.2361,1.2374,1.2387,1.2406,1.2435,1.2453,1.2489,1.2517,1.2545,1.2559,1.256,1.2561,1.2567,1.2565,1.256,1.2563,1.2502,1.2559,1.2559,1.2559,1.2559,1.2558,1.2279,1.2299,1.2319,1.2345,1.2361,1.238,1.24,1.2413,1.2437,1.2466,1.2471,1.2502,1.2524,1.2562,1.2577,1.2602,1.2597,1.2606,1.2608,1.261,1.2611,1.2556,1.2607,1.2607,1.2607,1.2607,1.2606,0,1.2325,1.2338,1.2362,1.239,1.241,1.2409,1.2431,1.2449,1.2475,1.2496,1.2518,1.2552,1.2579,1.2598,1.2626,1.2642,1.2643,1.2649,1.2648,1.2652,1.2614,1.2606,1.2648,1.2648,1.2648,1.2648,1.2648,1.2648,1.235,1.2383,1.239,1.2431,1.2445,1.2474,1.2487,1.2505,1.2521,1.2558,1.2581,1.2592,1.2612,1.2642,1.2668,1.2673,1.2683,1.2689,1.2694,1.2658,1.2654,1.265,1.2642,1.2691,1.2691,1.2729,1.273,1.273]},{"header":{"parameterUnit":"m.s-1","parameterCategory":1,"la1":30.2991,"la2":30.254,"lo1":-89.0895,"lo2":-89.0444,"dy":0.0017,"dx":0.0017,"nx":28,"ny":28,"refTime":"2026-02-24T09:00:00:Z","depth":0,"parameterNumber":3,"parameterNumberName":"V-component_of_WINDS"},"data":[0,0,0,0,0,0,0,0,0,0,0,0,0,0,0,0,0,0,0,0,0,0,0,0,0,0,0,0,0,0,0,0,0,0,0,0,0,0,0,0,0,0,0,0,0,0,0,0,0,0,0,0,0,0,0,0,0,0,3.804,3.8042,0,3.8173,3.8175,3.8176,3.8181,3.818,3.8178,3.8176,3.8316,3.8321,3.8326,0,0,0,0,0,0,0,0,0,0,0,0,0,3.7795,3.7799,3.804,3.8042,3.8044,3.8173,3.8175,3.8177,3.8181,3.8179,3.8178,3.8176,3.8315,3.8321,3.8327,0,0,0,0,0,0,0,0,0,0,0,0,0,3.7912,3.7801,3.804,3.8061,3.8065,3.8173,3.8175,3.8177,3.8182,3.8179,3.8177,3.8175,3.8312,3.832,3.8328,3.8425,0,0,3.8352,3.8355,0,0,0,0,0,0,0,0,3.7905,3.7921,3.8057,3.806,3.8064,3.8158,3.814,3.826,3.8182,3.8137,3.8176,3.8174,3.8266,3.8277,3.8308,3.8431,3.8437,3.8352,3.8357,3.8361,3.8363,0,0,0,0,0,0,0,3.7897,3.7915,3.8093,3.8059,3.8063,3.8066,3.808,3.8163,3.8214,3.8141,3.8142,3.8157,3.8267,3.83,3.8311,3.8439,3.8352,3.8359,3.8364,3.8367,3.8653,3.8655,0,0,0,0,0,0,3.7884,3.7909,3.8089,3.8097,3.7977,3.8072,3.8088,3.813,3.8213,3.8223,3.8159,3.8157,3.8288,3.8302,3.8316,3.8438,3.8361,3.8368,3.8372,3.865,3.8653,3.8656,0,0,0,0,0,0,3.7879,3.79,3.8083,3.8003,3.8027,3.8079,3.8127,3.8134,3.8167,3.8226,3.8236,3.8183,3.8287,3.8305,3.8398,3.8442,3.8371,3.8379,3.8646,3.8651,3.8655,3.868,0,0,0,0,0,0,3.7872,3.7898,3.7935,3.8004,3.8031,3.8162,3.8129,3.8139,3.818,3.8179,3.8251,3.8261,3.8286,3.8386,3.8406,3.8452,3.8385,3.8643,3.8648,3.8654,3.8675,3.8684,3.8692,0,0,0,0,0,3.7863,3.7936,3.7936,3.7958,3.8077,3.8164,3.818,3.8206,3.8184,3.8222,3.826,3.8259,3.8434,3.8396,3.8418,3.8467,3.864,3.8647,3.8653,3.8671,3.8683,3.8692,0,0,0,0,0,0,3.7871,3.7946,3.7947,3.8044,3.8098,3.8165,3.8213,3.8217,3.8279,3.8275,3.8306,3.8323,3.8416,3.845,3.8407,3.8567,3.8535,3.8546,3.8541,3.8552,3.856,3.8551,3.8391,0,0,0,0,0,3.7884,3.7948,3.801,3.809,3.8117,3.816,3.82,3.8215,3.8273,3.8296,3.8341,3.8398,3.8467,3.8511,3.8577,3.868,3.8698,3.8724,3.8733,3.8739,3.875,3.881,3.8824,3.8678,3.8678,3.8678,0,0,3.7912,3.7961,3.7999,3.8093,3.8136,3.8204,3.818,3.8251,3.8302,3.8307,3.8399,3.8434,3.85,3.8599,3.8645,3.8631,3.8794,3.8748,3.8753,3.8759,3.8818,3.8832,3.8844,3.8682,3.8681,3.8681,0,0,3.7998,3.8039,3.8112,3.8157,3.8223,3.8252,3.8269,3.8336,3.836,3.8452,3.8458,3.852,3.8635,3.8683,3.8723,3.8828,3.8831,3.8849,3.8894,3.8953,3.8964,3.8975,3.9016,3.903,3.8858,3.8858,3.8858,0,3.8025,3.8125,3.8149,3.8222,3.8264,3.8271,3.8347,3.8389,3.8473,3.8504,3.8486,3.8633,3.8678,3.879,3.8816,3.8847,3.887,3.8842,3.896,3.8971,3.8981,3.9021,3.9036,3.886,3.886,3.886,3.886,0,3.8156,3.8225,3.8276,3.8358,3.8406,3.8479,3.8517,3.8563,3.8575,3.8606,3.8701,3.8755,3.8833,3.8861,3.8873,3.8976,3.8965,3.8953,3.8922,3.8997,3.9035,3.905,3.8863,3.8862,3.8862,3.8861,0,0,3.8251,3.8346,3.8364,3.8403,3.8477,3.8532,3.8607,3.8683,3.8723,3.8781,3.8847,3.8946,3.8936,3.8981,3.8999,3.905,3.9134,3.9032,3.9034,3.9052,3.9255,3.9266,3.9282,3.9135,3.9138,3.914,3.9251,0,3.8347,3.8479,3.8504,3.862,3.8687,3.8695,3.876,3.8814,3.8846,3.8908,3.8943,3.9014,3.8994,3.9022,3.9073,3.9113,3.9176,3.9105,3.92,3.9203,3.9185,3.9302,3.9312,3.9414,3.9265,3.9268,3.9269,0,3.8476,3.8538,3.8661,3.8729,3.8757,3.8816,3.8889,3.8947,3.901,3.9029,3.908,3.9093,3.9173,3.9137,3.925,3.9201,3.9241,3.9267,3.9272,3.9284,3.9242,3.932,3.9446,3.9463,3.9292,3.9291,3.9289,0,3.8537,3.8651,3.874,3.8772,3.8852,3.8894,3.893,3.8989,3.9034,3.9098,3.9129,3.9201,3.9242,3.9299,3.9332,3.9301,3.9444,3.9409,3.9465,3.9465,3.9497,3.9495,3.9635,3.9518,3.9518,3.9517,3.9517,0,3.8644,3.8719,3.8769,3.8824,3.8909,3.8938,3.9023,3.9058,3.9112,3.9175,3.9186,3.9246,3.9284,3.9351,3.9377,3.9469,3.9486,3.9506,3.9513,3.9507,3.9505,3.9536,3.9531,3.9521,3.9521,3.952,3.9519,0,3.8727,3.8763,3.8861,3.8929,3.8948,3.9009,3.9068,3.9123,3.9155,3.9235,3.9256,3.9307,3.9385,3.9423,3.952,3.9538,3.9643,3.9644,3.9622,3.9626,3.9681,3.9676,3.9848,3.9873,3.9736,3.9737,3.9738,0,3.8794,3.8852,3.8927,3.897,3.9007,3.9076,3.9122,3.9153,3.9201,3.9277,3.9324,3.9403,3.9468,3.9593,3.964,3.9715,3.972,3.9775,3.9731,3.9725,3.9725,3.9722,3.973,3.9783,3.9785,3.9786,3.9786,0,3.891,3.8925,3.899,3.9063,3.9117,3.9176,3.9234,3.9269,3.9309,3.9363,3.9443,3.9494,3.9594,3.9673,3.9752,3.9791,3.9798,3.9799,3.9817,3.9813,3.98,3.9811,3.9647,3.9796,3.9795,3.9794,3.9794,3.9793,3.8989,3.9042,3.9104,3.9177,3.9224,3.9278,3.9334,3.9373,3.944,3.9523,3.9538,3.9624,3.9688,3.9794,3.9836,3.9905,3.9893,3.9918,3.9925,3.9931,3.9936,3.9786,3.9919,3.9919,3.9919,3.9919,3.9919,0,3.9108,3.9148,3.9215,3.9296,3.9355,3.9353,3.9417,3.9467,3.9542,3.96,3.9664,3.9758,3.9836,3.9889,3.9968,4.0014,4.0019,4.0034,4.0032,4.0042,3.994,3.9919,4.0029,4.0029,4.0029,4.0029,4.0029,4.0029,3.9177,3.9269,3.9291,3.9407,3.9447,3.9531,3.9569,3.962,3.9667,3.9771,3.9835,3.9868,3.9926,4.0009,4.0082,4.0095,4.0126,4.0142,4.0156,4.006,4.0049,4.0038,4.0018,4.0147,4.0147,4.0252,4.0253,4.0254]}]]